Location: Observatoire de Paris
(48.8363°N, 2.3365°E)
Time: 02:04:25
(UTC+01:00)

Vanguard 3 - Pass Details

Date: 04 August 2021
Orbit: 510 x 3260 km, 33.3° (Epoch: 18 September)

Event Time Altitude Azimuth Distance (km) Brightness Sun altitude
Rises 01:24:44 0° 274° (W) 7,185 11.9 -23.6°
Reaches altitude 10° 01:33:59 10° 252° (WSW) 6,171 11.3 -23.4°
Maximum altitude 01:40:47 13° 231° (SW) 5,739 11.0 -23.2°
Enters shadow 01:41:00 13° 231° (SW) 5,731 11.0 -23.2°
